Location: Newark
(35.2672°N, 80.7344°W)
Time: 14:36:24
(UTC+00:00)

Vanguard 2 Rocket - Pass Details

Date: 18 January 2020
Orbit: 553 x 3327 km, 32.9° (Epoch: 28 February)

Event Time Altitude Azimuth Distance (km) Brightness Sun altitude
Rises 14:08:39 0° 266° (W) 3,772 9.7 16.1°
Reaches altitude 10° 14:10:47 10° 265° (W) 3,062 9.3 16.4°
Maximum altitude 14:18:36 79° 180° (S) 1,718 8.7 17.6°
Drops below altitude 10° 14:33:03 10° 97° (E) 5,349 11.8 19.7°
Sets 14:38:05 0° 96° (E) 6,721 12.1 20.4°
